Regional Weather Roundup
Issued by NWS

Home | Current Version | Previous Version | Graphics & Text | Print | Product List | Glossary On
Versions: 1 2 3 4 5 6 7 8 9 10 11 12 13 14 15 16 17 18 19 20 21 22 23 24 25 26 27 28 29 30 31 32 33 34 35 36 37 38 39 40 41 42 43 44 45 46 47 48 49
000
ASUS45 KPSR 070610
RWRAZ

ARIZONA HOURLY REGIONAL WEATHER ROUNDUP
NATIONAL WEATHER SERVICE PHOENIX AZ
1100 PM MST SAT FEB 06 2016

NOTE: FAIR INDICATES FEW OR NO CLOUDS BELOW 12,000 FEET WITH NO
SIGNIFICANT WEATHER AND/OR OBSTRUCTIONS TO VISIBILITY.

AZZ001>003-036-070700-
NORTHWEST ARIZONA

CITY           SKY/WX    TMP DP  RH WIND       PRES   REMARKS
BULLHEAD CITY  CLEAR     59  25  27 N23G30    30.26F
KINGMAN        CLEAR     37  24  59 E5        30.33S WCI  33
6HR MIN TEMP:  37; 6HR MAX TEMP:  58;

$$

AZZ004>008-015-016-018-070700-
NORTH CENTRAL ARIZONA

CITY           SKY/WX    TMP DP  RH WIND       PRES   REMARKS
GRAND CANYON   CLEAR     23  15  71 CALM      30.42S
6HR MIN TEMP:  22; 6HR MAX TEMP:  44;

WILLIAMS       CLEAR     28  14  54 S9        30.44R WCI  20
PRESCOTT       CLEAR     33  19  56 S5        30.34R WCI  29
6HR MIN TEMP:  33; 6HR MAX TEMP:  57;

FLAGSTAFF      CLEAR     19  14  81 CALM      30.40R
6HR MIN TEMP:  19; 6HR MAX TEMP:  41;

PAYSON         CLEAR     45   5  19 E6        30.34S
PAGE           CLEAR     30  22  72 SE5       30.46S WCI  25
6HR MIN TEMP:  30; 6HR MAX TEMP:  39;

$$

AZZ009>014-017-070700-
NORTHEAST ARIZONA

CITY           SKY/WX    TMP DP  RH WIND       PRES   REMARKS
WINSLOW        CLEAR     26  15  63 W3        30.42R
6HR MIN TEMP:  25; 6HR MAX TEMP:  48;

SAINT JOHNS    CLEAR     28  15  58 CALM      30.38F
6HR MIN TEMP:  28; 6HR MAX TEMP:  50;

WINDOW ROCK    CLEAR     26   0  32 CALM      30.41R
6HR MIN TEMP:  23; 6HR MAX TEMP:  48;

SHOW LOW       CLEAR     23  14  68 CALM      30.38F
$$

AZZ023-070700-
GREATER PHOENIX AREA

CITY           SKY/WX    TMP DP  RH WIND       PRES   REMARKS
PHOENIX        CLEAR     55  26  32 CALM      30.17F
6HR MIN TEMP:  53; 6HR MAX TEMP:  74;

BUCKEYE        CLEAR     52  19  28 N8        30.21S
LUKE AFB       CLEAR     53  24  33 N8        30.18R
6HR MIN TEMP:  52; 6HR MAX TEMP:  72;

DEER VALLEY    CLEAR     55  22  27 NE5       30.19S
6HR MIN TEMP:  52; 6HR MAX TEMP:  72;

SCOTTSDALE     CLEAR     52  26  36 N3        30.21S
6HR MIN TEMP:  51; 6HR MAX TEMP:  72;

MESA-GATEWAY   CLEAR     52  25  35 E3        30.20S
$$

AZZ027-028-070700-
SOUTHWEST MARICOPA COUNTY AND PINAL COUNTY

CITY           SKY/WX    TMP DP  RH WIND       PRES   REMARKS
CASA GRANDE    CLEAR     52  18  25 N8        30.19S
6HR MIN TEMP:  50; 6HR MAX TEMP:  72;

GILA BEND      FAIR      47  22  38 S8        30.18S
6HR MIN TEMP:  46; 6HR MAX TEMP:  70;

$$

AZZ503-504-507>509-070700-
SOUTHEAST ARIZONA

CITY           SKY/WX    TMP DP  RH WIND       PRES   REMARKS
TUCSON         PTCLDY    54   9  16 E9        30.23R
6HR MIN TEMP:  54; 6HR MAX TEMP:  73;

DAVIS-MONTHAN  PTCLDY    54  10  17 E10       30.21R
6HR MIN TEMP:  50; 6HR MAX TEMP:  72;

NOGALES        CLEAR     41   9  26 NE6       30.24S
6HR MIN TEMP:  40; 6HR MAX TEMP:  70;

SIERRA VISTA   PTCLDY    46   9  22 CALM      30.30S
6HR MIN TEMP:  37; 6HR MAX TEMP:  60;

DOUGLAS        PTCLDY    33   8  35 CALM      30.29S
6HR MIN TEMP:  31; 6HR MAX TEMP:  63;

SAFFORD        CLEAR     36  15  42 CALM      30.29R
6HR MIN TEMP:  36; 6HR MAX TEMP:  63;

$$

AZZ020-021-025-026-031-070700-
SOUTHWEST ARIZONA

CITY           SKY/WX    TMP DP  RH WIND       PRES   REMARKS
YUMA           CLEAR     60  22  23 NW8       30.19F
6HR MIN TEMP:  59; 6HR MAX TEMP:  72;

$$

CAZ031-033-041-043-047-048-061-070700-
SOUTHERN CALIFORNIA

CITY           SKY/WX    TMP DP  RH WIND       PRES   REMARKS
DOWNTOWN L.A.  CLEAR     60  32  34 CALM      30.16R
6HR MIN TEMP:  59; 6HR MAX TEMP:  75;

L.A. AIRPORT   CLEAR     61  29  29 E5        30.16S
6HR MIN TEMP:  61; 6HR MAX TEMP:  70;

SAN DIEGO      CLEAR     61  29  29 CALM      30.16S
6HR MIN TEMP:  61; 6HR MAX TEMP:  73;

BURBANK        CLEAR     58  25  28 CALM      30.17S
6HR MIN TEMP:  57; 6HR MAX TEMP:  75;

ONTARIO        CLEAR     54  29  38 CALM      30.18S
6HR MIN TEMP:  51; 6HR MAX TEMP:  76;

RIVERSIDE      CLEAR     61  20  20 E5        30.20R
6HR MIN TEMP:  60; 6HR MAX TEMP:  76;

PALM SPRINGS   CLEAR     62  21  20 W7        30.24F
6HR MIN TEMP:  59; 6HR MAX TEMP:  76;

EL CENTRO NAS  CLEAR     50  18  28 W12       30.23S
6HR MIN TEMP:  49; 6HR MAX TEMP:  74;

IMPERIAL       CLEAR     50  22  33 W8        30.21S
6HR MIN TEMP:  50; 6HR MAX TEMP:  73;

BLYTHE         CLEAR     53  23  31 W8        30.23S
6HR MIN TEMP:  53; 6HR MAX TEMP:  71;

NEEDLES        CLEAR     51  23  33 W7        30.27S
6HR MIN TEMP:  51; 6HR MAX TEMP:  68;

$$

NVZ020-UTZ003-070700-
SOUTHERN NEVADA-UTAH

CITY           SKY/WX    TMP DP  RH WIND       PRES   REMARKS
LAS VEGAS      CLEAR     48  27  44 W7        30.31S
6HR MIN TEMP:  48; 6HR MAX TEMP:  61;

SALT LAKE CITY MOCLDY    28  21  75 SE3       30.49R
6HR MIN TEMP:  27; 6HR MAX TEMP:  34;

$$

NMZ009-TXZ055-070700-
NEW MEXICO-WEST TEXAS

CITY           SKY/WX    TMP DP  RH WIND       PRES   REMARKS
ALBUQUERQUE    CLOUDY    39  13  34 N8        30.36S WCI  33
6HR MIN TEMP:  39; 6HR MAX TEMP:  49;

EL PASO        MOCLDY    41   8  25 N3        30.31F
6HR MIN TEMP:  40; 6HR MAX TEMP:  55;

$$


........................KEY........................
SKY/WX - SKY CONDITION/WEATHER
TMP    - TEMPERATURE IN FAHRENHEIT
DP     - DEW POINT IN FAHRENHEIT
RH     - RELATIVE HUMIDITY IN PERCENT
WIND   - DIRECTION AND SPEED IN MILES PER HOUR (MPH)
VRB    - VARIABLE WIND DIRECTION
PRES   - MEAN SEA LEVEL PRESSURE IN INCHES OF MERCURY
         F - FALLING PRESSURE   R - RISING PRESSURE
         S - STEADY PRESSURE
VSB    - VISIBILITY IN MILES
HX     - HEAT INDEX IN FAHRENHEIT
WCI    - WIND CHILL INDEX IN FAHRENHEIT
TC     - TEMPERATURE IN CELSIUS WHICH IS ALSO KNOWN AS
         TEMPERATURE IN CENTIGRADE
AFB    - AIR FORCE BASE
         LUKE AFB IS LUKE AIR FORCE BASE
         DAVIS-MONTHAN IS DAVIS-MONTHAN AIR FORCE BASE
NAS    - NAVAL AIR STATION
         EL CENTRO NAS IS EL CENTRO NAVAL AIR STATION
N/A    - NOT AVAILABLE




USA.gov is the U.S. government's official web portal to all federal, state and local government web resources and services.